Tracking 23758 objects as of 28-Oct-2021
HD Live streaming from Space Station
objects crossing your sky now

SL-8 DEB

Track SL-8 DEB now!
10-day predictions


NORAD ID: 21955
Int'l Code: 1991-009CF
Perigee: 1,518.3 km
Apogee: 1,785.3 km
Inclination: 74.3 °
Period: 119.2 minutes
Semi major axis: 8022 km
RCS: 0.0532 m2 (small)
Launch date: February 12, 1991
Source: Commonwealth of Independent States (former USSR) (CIS)
Launch site: PLESETSK MISSILE AND SPACE COMPLEX (PKMTR)

Note: This is SATELLITE DEBRIS
aabbcc
Your satellite tracking list
Your tracking list is empty




NASA's NSSDC Master Catalog

Two Line Element Set (TLE):
1 21955U 91009CF  21300.57000169  .00000193  00000-0  22241-2 0  9991
2 21955  74.3086 335.5945 0166400 285.2028 201.0562 12.08123085350981
Source of the keplerian elements: AFSPC